Weather History for Al Udeid, Qatar

Change the Weather History Date:

Tuesday, June 4, 2013

  Actual Average Record
Temperature  
Mean Temperature 90 °F -  
Max Temperature 103 °F - - ()
Min Temperature 77 °F - - ()
Cooling Degree Days 25    
Growing Degree Days 40 (Base 50)    
Moisture  
Dew Point 69 °F    
Average Humidity 62    
Maximum Humidity 89    
Minimum Humidity 15    
Precipitation  
Precipitation 0.00 in - - ()
Sea Level Pressure  
Sea Level Pressure 29.59 in    
Wind  
Wind Speed 6 mph ()    
Max Wind Speed 13 mph    
Max Gust Speed -    
Visibility 5.1 miles    
Events      
T = Trace of Precipitation, MM = Missing Value Source: Averaged Metar Reports

Daily Weather History Graph

Daily Weather History Graph

Search for Another Location

Airport:

Trip Planner

Search our weather history database for the weather conditions in past years. The results will help you decide how hot, cold, wet, or windy it might be!

Date:

Astronomy

Jun. 04, 2013 Rise Set
Actual Time 4:44 AM AST 6:22 PM AST
Civil Twilight 4:18 AM AST 6:47 PM AST
Nautical Twilight 3:47 AM AST 7:18 PM AST
Astronomical Twilight 3:15 AM AST 7:50 PM AST
Moon 1:39 AM AST (6/4) 2:46 PM AST (6/4)
Length of Visible Light 14h 29m
Length of Day
13h 38m
Waning Crescent, 16% of the Moon is Illuminated
Jun 4
Waning Crescent
Jun 8
New
Jun 16
First Quarter
Jun 23
Full
Jun 30
Last Quarter

Hourly Weather History & Observations

Time (AST) Temp. Heat Index Dew Point Humidity Pressure Visibility Wind Dir Wind Speed Gust Speed Precip Events Conditions
12:55 AM 79.9 °F - 70.5 °F 73% 29.53 in 3.7 mi NNW 6.9 mph - N/A   Haze
1:55 AM 79.9 °F - 72.7 °F 79% 29.54 in 3.7 mi North 5.8 mph - N/A   Haze
2:16 AM 78.8 °F - 73.4 °F 83% 29.54 in 3.7 mi NNW 6.9 mph - N/A   Haze
2:29 AM 78.8 °F - 73.4 °F 83% 29.54 in 3.7 mi North 4.6 mph - N/A   Haze
2:34 AM 78.8 °F - 73.4 °F 83% 29.54 in 3.7 mi NNW 4.6 mph - N/A   Haze
2:55 AM 78.1 °F - 72.7 °F 83% 29.55 in 3.7 mi NNW 3.5 mph - N/A   Haze
3:17 AM 77.0 °F - 73.4 °F 89% 29.55 in 3.7 mi NW 5.8 mph - N/A   Haze
3:28 AM 77.0 °F - 73.4 °F 89% 29.55 in 3.7 mi NNW 5.8 mph - N/A   Haze
3:36 AM 78.8 °F - 73.4 °F 83% 29.55 in 3.7 mi NNW 4.6 mph - N/A   Haze
3:47 AM 78.8 °F - 73.4 °F 83% 29.56 in 3.7 mi NW 3.5 mph - N/A   Haze
3:55 AM 77.9 °F - 72.9 °F 84% 29.56 in 3.7 mi NW 3.5 mph - N/A   Haze
4:55 AM 80.4 °F 86.1 °F 75.9 °F 86% 29.57 in 5.0 mi North 4.6 mph - N/A   Haze
5:28 AM 80.6 °F 86.2 °F 75.2 °F 84% 29.58 in 5.0 mi NE 3.5 mph - N/A   Haze
5:55 AM 80.8 °F 86.7 °F 75.6 °F 84% 29.59 in 5.0 mi ENE 3.5 mph - N/A   Haze
6:20 AM 80.6 °F 86.2 °F 75.2 °F 84% 29.60 in 5.0 mi NE 3.5 mph - N/A   Haze
6:55 AM 82.4 °F 89.8 °F 75.7 °F 80% 29.61 in 5.0 mi Variable 3.5 mph - N/A   Haze
7:55 AM 85.6 °F 94.6 °F 75.2 °F 71% 29.62 in 5.6 mi North 5.8 mph - N/A   Haze
8:55 AM 91.8 °F 95.1 °F 66.7 °F 44% 29.63 in 5.0 mi East 10.4 mph - N/A   Haze
9:55 AM 94.8 °F 95.8 °F 62.1 °F 34% 29.63 in 5.0 mi ESE 10.4 mph - N/A   Haze
10:55 AM 99.3 °F - 51.6 °F 20% 29.62 in 5.6 mi ESE 10.4 mph - N/A   Haze
11:55 AM 101.1 °F - 52.2 °F 19% 29.61 in 6.2 mi ESE 12.7 mph - N/A   Clear
12:55 PM 102.6 °F 101.4 °F 55.8 °F 21% 29.60 in 6.2 mi ESE 11.5 mph - N/A   Clear
1:55 PM 103.1 °F - 46.9 °F 15% 29.60 in 6.2 mi East 9.2 mph - N/A   Clear
2:55 PM 101.1 °F 101.9 °F 60.6 °F 26% 29.60 in 6.2 mi ENE 8.1 mph - N/A   Clear
3:55 PM 99.5 °F 100.9 °F 61.9 °F 29% 29.60 in 6.2 mi ENE 9.2 mph - N/A   Clear
4:55 PM 97.5 °F 99.7 °F 63.9 °F 33% 29.60 in 6.2 mi ENE 9.2 mph - N/A   Clear
5:55 PM 94.8 °F 98.7 °F 66.7 °F 40% 29.60 in 6.2 mi ENE 8.1 mph - N/A   Clear
6:55 PM 91.0 °F 95.2 °F 68.2 °F 47% 29.62 in 6.2 mi NE 6.9 mph - N/A   Clear
7:55 PM 88.5 °F 93.5 °F 69.8 °F 54% 29.64 in 6.2 mi NE 4.6 mph - N/A   Clear
8:55 PM 88.2 °F 93.7 °F 70.7 °F 56% 29.65 in 6.2 mi NNE 5.8 mph - N/A   Clear
9:55 PM 86.0 °F 92.2 °F 72.0 °F 63% 29.65 in 6.2 mi East 4.6 mph - N/A   Clear
10:55 PM 82.9 °F 87.5 °F 71.1 °F 67% 29.65 in 6.2 mi NW 4.6 mph - N/A   Clear
11:55 PM 81.7 °F 85.4 °F 70.0 °F 68% 29.63 in 6.2 mi NNW 6.9 mph - N/A   Clear